Capri, Italy

3:28 PM CET on December 12, 2017 (GMT +0100)
Capri

Weather History for LIQC - June, 2013

Change the Weather History Date:

Thursday, June 27, 2013

  Actual Average (LIRN) Record (LIRN)
Temperature  
Mean Temperature 76 °F -  
Max Temperature 86 °F 84 °F 91 °F (2012)
Min Temperature 67 °F 67 °F 62 °F (1997)
Cooling Degree Days 12    
Growing Degree Days 26 (Base 50)    
Moisture  
Dew Point 64 °F    
Average Humidity 68    
Maximum Humidity 88    
Minimum Humidity 43    
Precipitation  
Precipitation 0.00 in - - ()
Sea Level Pressure  
Sea Level Pressure 30.08 in    
Wind  
Wind Speed 3 mph ()    
Max Wind Speed 5 mph    
Max Gust Speed -    
Visibility 11.1 miles    
Events      
Averages and records for this station are not official NWS values.
T = Trace of Precipitation, MM = Missing Value Source: Averaged Metar Reports

Daily Weather History Graph

Daily Weather History Graph

Search for Another Location

Airport or City:

Trip Planner

Search our weather history database for the weather conditions in past years. The results will help you decide how hot, cold, wet, or windy it might be!

Date:

Astronomy

Jun. 27, 2013 Rise Set
Actual Time 5:34 AM CEST 8:37 PM CEST
Civil Twilight 5:01 AM CEST 9:11 PM CEST
Nautical Twilight 4:18 AM CEST 9:53 PM CEST
Astronomical Twilight 3:29 AM CEST 10:43 PM CEST
Moon 11:24 PM CEST (6/27) 10:17 AM CEST (6/27)
Length of Visible Light 16h 09m
Length of Day
15h 03m
Waning Gibbous, 79% of the Moon is Illuminated
Jun 27
Waning Gibbous
Jun 30
Last Quarter
Jul 8
New
Jul 16
First Quarter
Jul 22
Full

Hourly Weather History & Observations

Time (CEST) Temp. Heat Index Dew Point Humidity Pressure Visibility Wind Dir Wind Speed Gust Speed Precip Events Conditions
12:55 AM 71.6 °F - 57.2 °F 60% 30.06 in - North - - N/A   Clear
1:55 AM 71.6 °F - 57.2 °F 60% 30.06 in - North - - N/A   Clear
2:00 AM 72 °F - 58 °F 52% 30.06 in 12 mi North 3.5 mph - -  
5:00 AM 68 °F - 59 °F 67% 30.06 in 12 mi North 3.5 mph - -  
5:55 AM 68.0 °F - 60.8 °F 78% 30.06 in - North - - N/A   Clear
6:55 AM 68.0 °F - 60.8 °F 78% 30.06 in - North - - N/A   Clear
7:55 AM 68.0 °F - 60.8 °F 78% 30.06 in - North - - N/A   Clear
8:00 AM 68 °F - 61 °F 71% 30.06 in 12 mi North 3.5 mph - -  
8:55 AM 68.0 °F - 60.8 °F 78% 30.06 in - North - - N/A   Clear
9:55 AM 71.6 °F - 62.6 °F 73% 30.06 in - North - - N/A   Clear
10:55 AM 73.4 °F - 64.4 °F 73% 30.09 in - North - - N/A   Clear
11:00 AM 74 °F - 65 °F 65% 30.08 in 6 mi 2.3 mph - -  
11:55 AM 75.2 °F - 64.4 °F 69% 30.09 in - North - - N/A   Clear
12:55 PM 77.0 °F - 66.2 °F 69% 30.09 in - North - - N/A   Clear
1:55 PM 78.8 °F - 69.8 °F 74% 30.09 in - North - - N/A   Clear
2:00 PM 80 °F - 69 °F 61% 30.08 in 12 mi 3.5 mph - -  
2:55 PM 84.2 °F 86.6 °F 66.2 °F 55% 30.09 in - North - - N/A   Clear
3:55 PM 84.2 °F 85.0 °F 62.6 °F 48% 30.09 in - North - - N/A   Clear
4:55 PM 84.2 °F 85.6 °F 64.4 °F 51% 30.09 in - North - - N/A   Clear
5:00 PM 84 °F - 65 °F 43% 30.07 in 12 mi 4.6 mph - -   Clear
5:55 PM 82.4 °F 84.6 °F 66.2 °F 58% 30.09 in - North - - N/A   Clear
6:55 PM 78.8 °F - 66.2 °F 65% 30.09 in - North - - N/A   Clear
7:55 PM 75.2 °F - 66.2 °F 73% 30.09 in - North - - N/A   Clear
8:00 PM 76 °F - 66 °F 63% 30.08 in 12 mi North 2.3 mph - -  
8:55 PM 71.6 °F - 66.2 °F 83% 30.09 in - North - - N/A   Clear
9:55 PM 69.8 °F - 66.2 °F 88% 30.09 in - North - - N/A   Clear
10:55 PM 68.0 °F - 64.4 °F 88% 30.09 in - North - - N/A   Clear
11:55 PM 68.0 °F - 64.4 °F 88% 30.09 in - North - - N/A   Clear